Location: *
(2.5500°S, 65.9667°W)
Time: 10:56:21
(UTC+00:00)

GPS 2-18 Rocket1 - Pass Details

Date: 26 October 2021
Orbit: 454 x 506 km, 20.9° (Epoch: 28 November)

Event Time Altitude Azimuth Distance (km) Brightness Sun altitude
Rises 22:37:46 0° 257° (WSW) 2,592 9.6 -6.7°
Reaches altitude 10° 22:40:04 10° 263° (W) 1,706 7.6 -7.3°
Maximum altitude 22:43:52 46° 337° (NNW) 676 3.9 -8.2°
Drops below altitude 10° 22:47:39 10° 52° (NE) 1,691 5.2 -9.1°
Enters shadow 22:47:42 10° 52° (NE) 1,709 5.3 -9.1°
